EW9273 Weather Reports


Display with metric or nautical units.
time (UTC)temp
F
wind
direction
speed
MPH
gust
MPH
rain 1hr
in
rain 24hr
in
rain mn
in
humidity
%
barometer
mb
20240227042526 70 104 1.0 4.0 0.00 0.00 0.00 81 1008.7
20240227042026 70 124 1.0 7.0 0.00 0.00 0.00 81 1008.5
20240227041528 70 113 2.0 9.0 0.00 0.00 0.00 81 1008.6
20240227041029 70 109 3.0 9.0 0.00 0.00 0.00 80 1008.5
20240227040525 71 126 3.0 8.0 0.00 0.00 0.00 80 1008.5
20240227040027 71 144 2.0 6.0 0.00 0.00 0.00 80 1008.4
20240227035525 71 166 2.0 4.0 0.00 0.00 0.00 80 1008.4
20240227035028 71 124 1.0 5.0 0.00 0.00 0.00 80 1008.6
20240227034524 71 132 2.0 5.0 0.00 0.00 0.00 80 1008.6
20240227034027 71 101 2.0 6.0 0.00 0.00 0.00 80 1008.4
20240227033527 71 108 2.0 6.0 0.00 0.00 0.00 79 1008.4
20240227033025 71 137 2.0 4.0 0.00 0.00 0.00 79 1008.4
20240227032523 71 128 1.0 3.0 0.00 0.00 0.00 79 1008.4
20240227032023 72 134 0.0 3.0 0.00 0.00 0.00 78 1008.5
20240227031524 72 82 1.0 4.0 0.00 0.00 0.00 78 1008.4
20240227031024 72 83 2.0 4.0 0.00 0.00 0.00 77 1008.4
20240227030526 72 96 2.0 4.0 0.00 0.00 0.00 77 1008.4
20240227030027 73 87 1.0 4.0 0.00 0.00 0.00 76 1008.3
20240227025524 73 113 2.0 6.0 0.00 0.00 0.00 76 1008.4
20240227025022 73 94 3.0 4.0 0.00 0.00 0.00 76 1008.4
20240227024528 74 94 1.0 8.0 0.00 0.00 0.00 75 1008.4
20240227024022 74 73 2.0 9.0 0.00 0.00 0.00 75 1008.2
20240227023521 74 98 4.0 9.0 0.00 0.00 0.00 75 1008.2
20240227023022 74 86 5.0 8.0 0.00 0.00 0.00 75 1008.2
20240227022522 74 117 3.0 7.0 0.00 0.00 0.00 74 1008.2
20240227022021 74 94 2.0 7.0 0.00 0.00 0.00 74 1008.1
20240227021521 74 86 3.0 7.0 0.00 0.00 0.00 74 1008.1
20240227021021 74 82 2.0 4.0 0.00 0.00 0.00 73 1008.1
20240227020521 74 72 1.0 2.0 0.00 0.00 0.00 72 1008.0
20240227020021 75 72 0.0 1.0 0.00 0.00 0.00 72 1008.0
20240227015523 75 72 0.0 0.0 0.00 0.00 0.00 71 1008.1
20240227015021 75 72 0.0 0.0 0.00 0.00 0.00 71 1008.1
20240227014527 76 72 0.0 0.0 0.00 0.00 0.00 71 1007.9
20240227014021 76 72 0.0 0.0 0.00 0.00 0.00 71 1007.8
20240227013524 76 72 0.0 1.0 0.00 0.00 0.00 70 1007.6
20240227013021 76 72 0.0 2.0 0.00 0.00 0.00 70 1007.7
20240227012519 76 72 0.0 2.0 0.00 0.00 0.00 70 1007.8
20240227012020 76 72 0.0 2.0 0.00 0.00 0.00 70 1007.7
20240227011519 76 72 1.0 2.0 0.00 0.00 0.00 69 1007.7
20240227011019 77 72 1.0 2.0 0.00 0.00 0.00 69 1007.7
20240227010519 77 72 0.0 2.0 0.00 0.00 0.00 68 1007.7
20240227010033 77 72 0.0 1.0 0.00 0.00 0.00 68 1007.6
20240227005518 78 72 0.0 1.0 0.00 0.00 0.00 67 1007.8
20240227005024 78 72 0.0 1.0 0.00 0.00 0.00 67 1007.7
20240227004519 78 72 0.0 2.0 0.00 0.00 0.00 67 1007.6
20240227004018 78 72 0.0 2.0 0.00 0.00 0.00 66 1007.6
20240227003518 79 72 0.0 2.0 0.00 0.00 0.00 66 1007.6
20240227003026 79 78 0.0 8.0 0.00 0.00 0.00 66 1007.5
20240227002518 79 136 2.0 8.0 0.00 0.00 0.00 65 1007.6
20240227002017 79 98 1.0 4.0 0.00 0.00 0.00 65 1007.6
20240227001517 79 121 2.0 7.0 0.00 0.00 0.00 65 1007.6
20240227001017 80 39 3.0 7.0 0.00 0.00 0.00 65 1007.6
20240227000516 80 136 2.0 5.0 0.00 0.00 0.00 65 1007.7
20240227000016 80 150 2.0 8.0 0.00 0.00 0.00 64 1007.7
20240226235515 80 127 3.0 8.0 0.00 0.00 0.00 64 1007.8
20240226235014 80 126 3.0 8.0 0.00 0.00 0.00 64 1007.8
20240226234615 80 132 2.0 9.0 0.00 0.00 0.00 64 1007.9
20240226234018 80 155 2.0 9.0 0.00 0.00 0.00 64 1007.8
20240226233514 81 147 2.0 10.0 0.00 0.00 0.00 64 1007.9
20240226233014 81 148 2.0 11.0 0.00 0.00 0.00 63 1007.9
20240226232514 81 146 3.0 11.0 0.00 0.00 0.00 63 1007.9
20240226232012 81 139 4.0 11.0 0.00 0.00 0.00 62 1008.0
20240226231513 81 163 4.0 8.0 0.00 0.00 0.00 62 1008.0
20240226231010 81 162 3.0 11.0 0.00 0.00 0.00 62 1008.1
20240226230511 81 152 5.0 12.0 0.00 0.00 0.00 62 1008.2
20240226230010 81 130 4.0 12.0 0.00 0.00 0.00 62 1008.2
20240226225509 82 137 3.0 8.0 0.00 0.00 0.00 62 1008.2
20240226225009 81 118 2.0 12.0 0.00 0.00 0.00 63 1008.2
20240226224509 81 136 6.0 12.0 0.00 0.00 0.00 62 1008.2
20240226224009 82 107 5.0 9.0 0.00 0.00 0.00 62 1008.1
20240226223508 81 156 4.0 11.0 0.00 0.00 0.00 63 1008.1
20240226223007 81 132 5.0 11.0 0.00 0.00 0.00 63 1008.3
20240226222507 81 163 6.0 10.0 0.00 0.00 0.00 62 1008.3
20240226222009 81 194 4.0 9.0 0.00 0.00 0.00 63 1008.4
20240226221506 82 74 5.0 11.0 0.00 0.00 0.00 63 1008.4
20240226221009 81 198 3.0 11.0 0.00 0.00 0.00 64 1008.4
20240226220504 82 181 5.0 8.0 0.00 0.00 0.00 63 1008.4
20240226220003 81 181 1.0 10.0 0.00 0.00 0.00 64 1008.5
20240226215503 80 194 4.0 15.0 0.00 0.00 0.00 66 1008.5
20240226215003 80 169 7.0 12.0 0.00 0.00 0.00 65 1008.6
20240226214502 80 188 5.0 12.0 0.00 0.00 0.00 66 1008.6
20240226214100 80 168 4.0 13.0 0.00 0.00 0.00 66 1008.7
20240226213559 80 173 4.0 9.0 0.00 0.00 0.00 66 1008.9
20240226213100 80 89 3.0 12.0 0.00 0.00 0.00 67 1008.9
20240226212558 79 149 8.0 12.0 0.00 0.00 0.00 66 1008.9
20240226212100 80 99 2.0 8.0 0.00 0.00 0.00 67 1009.1
20240226211617 79 185 3.0 9.0 0.00 0.00 0.00 67 1009.1
20240226211102 79 155 4.0 9.0 0.00 0.00 0.00 66 1009.2
20240226210554 79 131 3.0 9.0 0.00 0.00 0.00 67 1009.2
20240226210054 78 172 4.0 9.0 0.00 0.00 0.00 68 1009.4
20240226205553 78 123 4.0 9.0 0.00 0.00 0.00 68 1009.4
20240226205052 78 133 5.0 11.0 0.00 0.00 0.00 67 1009.4
20240226204616 77 191 5.0 11.0 0.00 0.00 0.00 68 1009.5
20240226204052 77 146 5.0 11.0 0.00 0.00 0.00 68 1009.5
20240226203550 78 104 3.0 9.0 0.00 0.00 0.00 68 1009.6
20240226203049 77 82 5.0 11.0 0.00 0.00 0.00 69 1009.7
20240226202548 77 119 6.0 11.0 0.00 0.00 0.00 69 1009.9
20240226202047 77 180 5.0 11.0 0.00 0.00 0.00 69 1009.9
20240226201549 76 189 4.0 9.0 0.00 0.00 0.00 70 1010.0
20240226201044 77 170 3.0 9.0 0.00 0.00 0.00 69 1010.1
20240226200544 77 140 4.0 9.0 0.00 0.00 0.00 70 1010.2
20240226200044 76 200 4.0 12.0 0.00 0.00 0.00 70 1010.4
20240226195543 76 151 5.0 12.0 0.00 0.00 0.00 70 1010.5
20240226195042 76 178 5.0 9.0 0.00 0.00 0.00 71 1010.6
20240226194541 76 198 5.0 10.0 0.00 0.00 0.00 70 1010.8
20240226194039 76 196 4.0 10.0 0.00 0.00 0.00 71 1011.0
20240226193543 76 169 3.0 9.0 0.00 0.00 0.00 72 1011.3
20240226193037 75 144 5.0 12.0 0.00 0.00 0.00 71 1011.4
20240226192536 75 159 4.0 12.0 0.00 0.00 0.00 72 1011.5
20240226192034 75 145 3.0 8.0 0.00 0.00 0.00 73 1011.7
20240226191534 76 148 3.0 8.0 0.00 0.00 0.00 71 1011.7
20240226191033 75 169 4.0 8.0 0.00 0.00 0.00 72 1011.8
20240226190533 75 197 3.0 9.0 0.00 0.00 0.00 73 1011.9
20240226190033 75 188 6.0 10.0 0.00 0.00 0.00 72 1012.1
20240226185532 76 199 4.0 9.0 0.00 0.00 0.00 71 1012.2
20240226185031 75 189 4.0 9.0 0.00 0.00 0.00 73 1012.4
20240226184540 74 169 5.0 11.0 0.00 0.00 0.00 74 1012.5
20240226184030 74 175 5.0 12.0 0.00 0.00 0.00 76 1012.6
20240226183529 74 179 5.0 10.0 0.00 0.00 0.00 75 1012.6
20240226183033 74 186 5.0 10.0 0.00 0.00 0.00 75 1012.6
20240226182526 73 163 3.0 8.0 0.00 0.00 0.00 78 1012.7
20240226182025 73 195 5.0 8.0 0.00 0.00 0.00 78 1012.8
20240226181530 73 101 2.0 9.0 0.00 0.00 0.00 80 1012.9
20240226181023 71 196 4.0 9.0 0.00 0.00 0.00 81 1013.0
20240226180522 71 186 4.0 11.0 0.00 0.00 0.00 83 1013.1
20240226180021 70 146 2.0 11.0 0.00 0.00 0.00 85 1013.3
20240226175520 69 219 3.0 9.0 0.00 0.00 0.00 87 1013.4
20240226175020 69 128 5.0 10.0 0.00 0.00 0.00 89 1013.5
20240226174519 69 220 5.0 10.0 0.00 0.00 0.00 90 1013.5
20240226174017 68 190 3.0 9.0 0.00 0.00 0.00 93 1013.6
20240226173519 66 196 4.0 10.0 0.00 0.00 0.00 95 1013.7
20240226173015 66 221 4.0 11.0 0.00 0.00 0.00 95 1013.7
20240226172514 65 184 3.0 11.0 0.00 0.00 0.00 96 1013.9
20240226172012 65 242 5.0 10.0 0.00 0.00 0.00 96 1013.9
20240226171515 65 206 3.0 9.0 0.00 0.00 0.00 96 1014.1
20240226171012 64 183 4.0 9.0 0.00 0.00 0.00 96 1014.0
20240226170511 64 199 3.0 9.0 0.00 0.00 0.00 96 1014.1
20240226170012 64 121 4.0 7.0 0.00 0.00 0.00 95 1014.2
20240226165510 64 213 3.0 8.0 0.00 0.00 0.00 95 1014.2
20240226165010 63 128 2.0 10.0 0.00 0.00 0.00 95 1014.2
20240226164509 63 188 2.0 10.0 0.00 0.00 0.00 95 1014.2
20240226164009 63 167 3.0 7.0 0.00 0.00 0.00 95 1014.2
20240226163508 63 162 2.0 9.0 0.00 0.00 0.00 95 1014.2
20240226163008 63 142 4.0 9.0 0.00 0.00 0.00 95 1014.3
20240226162507 63 126 3.0 7.0 0.00 0.00 0.00 95 1014.3
20240226162007 63 200 2.0 5.0 0.00 0.00 0.00 95 1014.3
20240226161519 63 130 3.0 7.0 0.00 0.00 0.00 95 1014.3
20240226161008 62 146 2.0 7.0 0.00 0.00 0.00 95 1014.3
20240226160504 62 132 3.0 7.0 0.00 0.00 0.00 95 1014.3
20240226160005 62 169 3.0 7.0 0.00 0.00 0.00 95 1014.3
20240226155504 62 170 3.0 7.0 0.00 0.00 0.00 94 1014.3
20240226155004 62 179 3.0 5.0 0.00 0.00 0.00 94 1014.3
20240226154504 62 142 1.0 4.0 0.00 0.00 0.00 94 1014.2
20240226154007 62 144 1.0 4.0 0.00 0.00 0.00 94 1014.3
20240226153503 62 135 2.0 5.0 0.00 0.00 0.00 94 1014.3
20240226153002 62 185 2.0 6.0 0.00 0.00 0.00 94 1014.2
20240226152501 61 107 1.0 6.0 0.00 0.00 0.00 94 1014.0
20240226152000 61 176 2.0 6.0 0.00 0.00 0.00 94 1014.0
20240226151600 61 127 2.0 6.0 0.00 0.00 0.00 93 1014.0
20240226151059 61 139 2.0 6.0 0.00 0.00 0.00 93 1014.0
20240226150558 61 187 2.0 6.0 0.00 0.00 0.00 93 1013.9
20240226150117 61 159 3.0 6.0 0.00 0.00 0.00 93 1014.0
20240226145559 61 168 2.0 7.0 0.00 0.00 0.00 93 1014.0
20240226145058 61 126 2.0 6.0 0.00 0.00 0.00 92 1013.9
20240226144558 61 175 2.0 6.0 0.00 0.00 0.00 92 1013.8
20240226144057 61 121 1.0 4.0 0.00 0.00 0.00 92 1013.7
20240226143556 61 182 2.0 5.0 0.00 0.00 0.00 92 1013.7
20240226143107 61 127 1.0 6.0 0.00 0.00 0.00 92 1013.6
20240226142555 61 172 4.0 7.0 0.00 0.00 0.00 92 1013.6
20240226142055 61 174 2.0 7.0 0.00 0.00 0.00 92 1013.5
20240226141554 61 142 2.0 4.0 0.00 0.00 0.00 92 1013.5
20240226141053 61 178 2.0 5.0 0.00 0.00 0.00 92 1013.5
20240226140553 61 166 2.0 5.0 0.00 0.00 0.00 92 1013.4
20240226140053 60 173 2.0 5.0 0.00 0.00 0.00 92 1013.5
20240226135553 60 166 0.0 3.0 0.00 0.00 0.00 91 1013.4
20240226135051 60 173 0.0 3.0 0.00 0.00 0.00 91 1013.4
20240226134551 60 173 0.0 3.0 0.00 0.00 0.00 91 1013.3
20240226134050 60 173 0.0 4.0 0.00 0.00 0.00 91 1013.3
20240226133551 60 182 1.0 4.0 0.00 0.00 0.00 91 1013.3
20240226133050 60 132 1.0 3.0 0.00 0.00 0.00 91 1013.3
20240226132548 60 156 1.0 3.0 0.00 0.00 0.00 91 1013.3
20240226132048 60 135 1.0 3.0 0.00 0.00 0.00 91 1013.2
20240226131550 59 161 1.0 4.0 0.00 0.00 0.00 90 1013.1
20240226131046 59 157 1.0 3.0 0.00 0.00 0.00 90 1013.2
20240226130546 60 178 1.0 3.0 0.00 0.00 0.00 90 1013.2
20240226130045 60 174 0.0 3.0 0.00 0.00 0.00 90 1013.1
20240226125544 60 173 2.0 3.0 0.00 0.00 0.00 90 1013.1
20240226125043 59 171 1.0 3.0 0.00 0.00 0.00 90 1013.0
20240226124552 59 171 1.0 3.0 0.00 0.00 0.00 90 1013.1
20240226124043 59 171 1.0 2.0 0.00 0.00 0.00 89 1013.0
20240226123545 59 171 0.0 1.0 0.00 0.00 0.00 89 1013.0
20240226123045 59 171 0.0 2.0 0.00 0.00 0.00 89 1013.0
20240226122542 59 171 0.0 2.0 0.00 0.00 0.00 89 1013.0
20240226122042 59 171 1.0 2.0 0.00 0.00 0.00 89 1013.0
20240226121543 59 171 0.0 2.0 0.00 0.00 0.00 89 1012.9
20240226121041 60 171 0.0 2.0 0.00 0.00 0.00 89 1013.0
20240226120540 60 171 0.0 3.0 0.00 0.00 0.00 89 1013.0
20240226120057 60 171 1.0 3.0 0.00 0.00 0.00 89 1013.0
20240226115543 60 200 1.0 3.0 0.00 0.00 0.00 89 1012.9
20240226115041 60 180 1.0 3.0 0.00 0.00 0.00 89 1013.0
20240226114558 60 180 0.0 1.0 0.00 0.00 0.00 89 1012.9
20240226114039 60 180 0.0 3.0 0.00 0.00 0.00 89 1012.9
20240226113538 60 180 1.0 3.0 0.00 0.00 0.00 89 1012.9
20240226113038 60 218 1.0 3.0 0.00 0.00 0.00 89 1012.9
20240226112540 60 198 1.0 3.0 0.00 0.00 0.00 89 1012.9
20240226112038 60 223 0.0 3.0 0.00 0.00 0.00 88 1012.8
20240226111542 60 223 0.0 3.0 0.00 0.00 0.00 88 1012.9
20240226111039 60 178 0.0 3.0 0.00 0.00 0.00 88 1012.8
20240226110536 60 178 1.0 3.0 0.00 0.00 0.00 88 1012.7
20240226110039 60 216 1.0 4.0 0.00 0.00 0.00 88 1012.8
20240226105534 60 223 1.0 4.0 0.00 0.00 0.00 88 1012.8
20240226105033 61 202 1.0 4.0 0.00 0.00 0.00 88 1012.7
20240226104546 61 204 2.0 4.0 0.00 0.00 0.00 88 1012.7
20240226104032 61 190 2.0 5.0 0.00 0.00 0.00 88 1012.7
20240226103532 61 188 2.0 5.0 0.00 0.00 0.00 88 1012.7
20240226103036 61 186 1.0 4.0 0.00 0.00 0.00 88 1012.7
20240226102531 61 191 0.0 2.0 0.00 0.00 0.00 87 1012.9
20240226102030 61 191 0.0 2.0 0.00 0.00 0.00 87 1012.9
20240226101536 61 191 0.0 2.0 0.00 0.00 0.00 87 1012.9
20240226101030 61 191 0.0 3.0 0.00 0.00 0.00 87 1012.9
20240226100529 61 191 1.0 3.0 0.00 0.00 0.00 87 1012.9
20240226100029 61 209 0.0 3.0 0.00 0.00 0.00 87 1012.9
20240226095529 62 182 1.0 3.0 0.00 0.00 0.00 87 1013.0
20240226095030 62 182 1.0 3.0 0.00 0.00 0.00 87 1013.0
20240226094529 62 182 2.0 3.0 0.00 0.00 0.00 87 1012.9
20240226094028 62 173 1.0 2.0 0.00 0.00 0.00 87 1012.9
20240226093529 62 173 0.0 2.0 0.00 0.00 0.00 86 1012.9
20240226093027 62 173 0.0 3.0 0.00 0.00 0.00 86 1012.9
20240226092530 62 173 1.0 3.0 0.00 0.00 0.00 86 1013.0
20240226092026 62 173 0.0 3.0 0.00 0.00 0.00 86 1013.0
20240226091526 62 173 1.0 3.0 0.00 0.00 0.00 86 1013.0
20240226091023 62 172 0.0 2.0 0.00 0.00 0.00 86 1013.1
20240226090524 62 172 0.0 2.0 0.00 0.00 0.00 86 1013.1
20240226090023 62 172 0.0 2.0 0.00 0.00 0.00 86 1013.2
20240226085524 62 172 0.0 2.0 0.00 0.00 0.00 86 1013.2
20240226085021 62 172 0.0 2.0 0.00 0.00 0.00 85 1013.3
20240226084521 62 194 0.0 2.0 0.00 0.00 0.00 85 1013.3
20240226084020 62 192 0.0 2.0 0.00 0.00 0.00 85 1013.3
20240226083520 62 192 1.0 3.0 0.00 0.00 0.00 85 1013.4
20240226083020 62 202 1.0 3.0 0.00 0.00 0.00 85 1013.4
20240226082519 62 194 1.0 4.0 0.00 0.00 0.00 85 1013.5
20240226082022 63 205 1.0 4.0 0.00 0.00 0.00 85 1013.5
20240226081518 63 207 1.0 3.0 0.00 0.00 0.00 85 1013.5
20240226081017 63 207 0.0 2.0 0.00 0.00 0.00 85 1013.6
20240226080518 63 207 1.0 2.0 0.00 0.00 0.00 84 1013.5
20240226080017 63 207 0.0 0.0 0.00 0.00 0.00 84 1013.6
20240226075516 63 207 0.0 0.0 0.00 0.00 0.00 84 1013.6
20240226075016 63 207 0.0 0.0 0.00 0.00 0.00 84 1013.7
20240226074516 63 207 0.0 0.0 0.00 0.00 0.00 84 1013.7
20240226074015 63 207 0.0 0.0 0.00 0.00 0.00 83 1013.7
20240226073515 63 207 0.0 2.0 0.00 0.00 0.00 83 1013.7
20240226073018 63 207 0.0 2.0 0.00 0.00 0.00 83 1013.6
20240226072515 63 207 1.0 3.0 0.00 0.00 0.00 83 1013.6
20240226072013 64 207 1.0 3.0 0.00 0.00 0.00 83 1013.7
20240226071512 64 207 0.0 2.0 0.00 0.00 0.00 83 1013.8
20240226071011 64 207 0.0 3.0 0.00 0.00 0.00 83 1013.7
20240226070510 64 207 0.0 3.0 0.00 0.00 0.00 83 1013.8
20240226070015 64 190 1.0 3.0 0.00 0.00 0.00 83 1013.9
20240226065510 64 181 1.0 3.0 0.00 0.00 0.00 82 1013.9
20240226065008 64 181 1.0 4.0 0.00 0.00 0.00 82 1013.9
20240226064519 64 191 0.0 4.0 0.00 0.00 0.00 82 1013.9
20240226064007 65 196 0.0 3.0 0.00 0.00 0.00 82 1014.0
20240226063508 65 196 0.0 2.0 0.00 0.00 0.00 82 1013.9
20240226063007 65 196 1.0 4.0 0.00 0.00 0.00 81 1013.9
20240226062505 65 182 1.0 4.0 0.00 0.00 0.00 81 1013.9
20240226062005 65 170 2.0 4.0 0.00 0.00 0.00 81 1014.0
20240226061505 65 170 2.0 4.0 0.00 0.00 0.00 81 1014.0
20240226061004 65 193 0.0 1.0 0.00 0.00 0.00 80 1014.0
20240226060503 65 193 0.0 2.0 0.00 0.00 0.00 80 1014.0
20240226060002 66 193 0.0 3.0 0.00 0.00 0.00 80 1014.0
20240226055502 66 184 1.0 3.0 0.00 0.00 0.00 80 1014.1
20240226055001 66 162 0.0 3.0 0.00 0.00 0.00 79 1014.0
20240226054501 66 162 0.0 4.0 0.00 0.00 0.00 79 1014.0
20240226054001 66 162 1.0 2.0 0.00 0.00 0.00 79 1014.0
20240226053504 66 155 0.0 3.0 0.00 0.00 0.00 79 1014.0
20240226053100 66 158 0.0 3.0 0.00 0.00 0.00 79 1014.0
20240226053001 66 158 0.0 3.0 0.00 0.00 0.00 79 1013.9
20240226052600 67 130 0.0 3.0 0.00 0.00 0.00 79 1013.9
20240226052100 67 130 1.0 4.0 0.00 0.00 0.00 78 1013.9
20240226051608 67 147 1.0 4.0 0.00 0.00 0.00 78 1013.9
20240226051501 67 115 1.0 4.0 0.00 0.00 0.00 78 1014.0
20240226051059 67 148 1.0 4.0 0.00 0.00 0.00 78 1013.9
20240226050600 67 152 1.0 5.0 0.00 0.00 0.00 77 1013.9
20240226050504 67 152 1.0 5.0 0.00 0.00 0.00 77 1013.9
20240226050107 68 134 2.0 4.0 0.00 0.00 0.00 77 1013.7
20240226045558 68 144 3.0 4.0 0.00 0.00 0.00 77 1013.7
20240226045058 68 153 1.0 5.0 0.00 0.00 0.00 76 1013.8
20240226044600 68 132 2.0 5.0 0.00 0.00 0.00 76 1013.8
20240226044059 68 148 1.0 4.0 0.00 0.00 0.00 75 1013.9
20240226043558 68 132 1.0 4.0 0.00 0.00 0.00 75 1013.8
20240226043059 68 132 1.0 3.0 0.00 0.00 0.00 75 1013.9